Location: Dattensoll
(49.9928°N, 9.8954°E)
Time: 05:34:34
(UTC+00:00)

Cosmos 2084 Rocket - Pass Details

Date: 19 May 2025
Orbit: 543 x 578 km, 62.8° (Epoch: 22 June)

Event Time Altitude Azimuth Distance (km) Brightness Sun altitude
Rises 21:54:45 0° 238° (WSW) 2,781 6.8 -17.7°
Reaches altitude 10° 21:57:03 10° 244° (WSW) 1,882 6.0 -17.8°
Maximum altitude 22:01:11 50° 321° (NW) 732 4.3 -18.0°
Drops below altitude 10° 22:05:19 10° 37° (NE) 1,873 6.5 -18.3°
Sets 22:07:35 0° 43° (NE) 2,766 7.3 -18.4°
